WA6MEM Weather Reports


Display with metric or nautical units.
time (UTC)temp
F
wind
direction
speed
MPH
gust
MPH
rain 1hr
in
rain 24hr
in
rain mn
in
humidity
%
barometer
mb
20260903223057 70 134 4.0 0.0 0.00 0.00 0.01 79 1010.9
20260903222554 70 202 4.0 0.0 0.00 0.00 0.01 79 1011.1
20260903222053 70 225 4.0 0.0 0.00 0.00 0.01 80 1011.1
20260903221553 70 208 3.0 0.0 0.00 0.00 0.01 80 1011.1
20260903221052 70 129 3.0 0.0 0.00 0.00 0.01 81 1011.2
20260903220552 69 172 3.0 0.0 0.00 0.00 0.01 80 1011.2
20260903220112 69 179 4.0 0.0 0.00 0.00 0.01 80 1011.2
20260903215552 70 172 4.0 0.0 0.00 0.00 0.01 79 1011.2
20260903215050 71 148 3.0 0.0 0.00 0.00 0.01 79 1011.2
20260903214550 71 213 4.0 0.0 0.00 0.00 0.01 80 1011.2
20260903214050 71 190 4.0 0.0 0.00 0.00 0.01 79 1011.2
20260903213552 71 201 3.0 0.0 0.00 0.00 0.01 78 1011.2
20260903213050 71 238 4.0 0.0 0.00 0.00 0.01 79 1011.2
20260903212549 70 240 4.0 0.0 0.00 0.00 0.01 78 1011.3
20260903212050 71 205 3.0 0.0 0.00 0.00 0.01 79 1011.3
20260903211554 70 170 3.0 0.0 0.00 0.00 0.01 80 1011.3
20260903211049 70 229 3.0 0.0 0.00 0.00 0.01 82 1011.4
20260903210548 70 167 3.0 0.0 0.00 0.00 0.01 81 1011.4
20260903210048 70 269 3.0 0.0 0.00 0.00 0.01 81 1011.4
20260903205547 70 232 3.0 0.0 0.00 0.00 0.01 81 1011.5
20260903205051 70 214 4.0 0.0 0.00 0.00 0.01 82 1011.5
20260903204547 70 169 4.0 0.0 0.00 0.00 0.01 82 1011.5
20260903204045 69 159 3.0 0.0 0.00 0.00 0.01 81 1011.6
20260903203545 69 217 3.0 0.0 0.00 0.00 0.01 82 1011.6
20260903203045 69 209 4.0 0.0 0.00 0.00 0.01 81 1011.6
20260903202546 69 183 4.0 0.0 0.00 0.00 0.01 82 1011.7
20260903202045 69 132 4.0 0.0 0.00 0.00 0.01 82 1011.7
20260903201545 69 162 4.0 0.0 0.00 0.00 0.01 82 1011.7
20260903201044 69 217 4.0 0.0 0.00 0.00 0.01 81 1011.8
20260903200547 70 178 3.0 0.0 0.00 0.00 0.01 80 1011.8
20260903200045 70 178 3.0 0.0 0.00 0.00 0.01 81 1011.8
20260903195544 70 219 4.0 0.0 0.00 0.00 0.01 80 1011.9
20260903195044 70 146 4.0 0.0 0.00 0.00 0.01 80 1011.9
20260903194543 70 155 4.0 0.0 0.00 0.00 0.01 79 1011.9
20260903194046 70 190 4.0 0.0 0.00 0.00 0.01 80 1012.0
20260903193542 70 183 4.0 0.0 0.00 0.00 0.01 80 1012.0
20260903193042 70 213 4.0 0.0 0.00 0.00 0.01 79 1012.0
20260903192542 70 163 3.0 0.0 0.00 0.00 0.01 79 1012.2
20260903192044 71 168 4.0 0.0 0.00 0.00 0.01 79 1012.2
20260903191551 71 151 4.0 0.0 0.00 0.00 0.01 79 1012.2
20260903191041 71 168 3.0 0.0 0.00 0.00 0.01 78 1012.4
20260903190541 71 168 3.0 0.0 0.00 0.00 0.01 78 1012.4
20260903190041 71 181 3.0 0.0 0.00 0.00 0.01 78 1012.4
20260903185539 71 162 3.0 0.0 0.00 0.00 0.01 79 1012.5
20260903185039 71 196 3.0 0.0 0.00 0.00 0.01 78 1012.5
20260903184544 70 145 3.0 0.0 0.00 0.00 0.01 79 1012.5
20260903184037 70 167 3.0 0.0 0.00 0.00 0.01 79 1012.8
20260903183536 70 176 4.0 0.0 0.00 0.00 0.01 79 1012.8
20260903183037 70 251 4.0 0.0 0.00 0.00 0.01 78 1012.8
20260903182538 70 148 3.0 0.0 0.00 0.00 0.01 78 1013.0
20260903182037 70 166 4.0 0.0 0.00 0.00 0.01 79 1013.0
20260903181535 69 202 4.0 0.0 0.00 0.00 0.01 79 1013.0
20260903181034 69 150 3.0 0.0 0.00 0.00 0.01 78 1012.9
20260903180534 70 181 3.0 0.0 0.00 0.00 0.01 78 1012.9
20260903180044 69 191 2.0 0.0 0.00 0.00 0.01 81 1012.9
20260903175532 69 177 3.0 0.0 0.00 0.00 0.01 81 1012.8
20260903175030 69 173 2.0 0.0 0.00 0.00 0.01 83 1012.8
20260903174529 68 198 2.0 0.0 0.00 0.00 0.01 84 1012.8
20260903174029 68 200 2.0 0.0 0.00 0.00 0.01 84 1013.1
20260903173525 67 214 2.0 0.0 0.00 0.00 0.01 85 1013.1
20260903173025 67 181 3.0 0.0 0.00 0.00 0.01 85 1013.1
20260903172527 67 251 3.0 0.0 0.00 0.00 0.01 84 1013.1
20260903172024 67 159 3.0 0.0 0.00 0.00 0.01 85 1013.1
20260903171523 66 190 2.0 0.0 0.00 0.00 0.01 86 1013.1
20260903171022 66 235 2.0 0.0 0.00 0.00 0.01 86 1012.9
20260903170521 66 161 2.0 0.0 0.00 0.00 0.01 85 1012.9
20260903170021 66 158 1.0 0.0 0.00 0.00 0.01 86 1012.9
20260903165520 66 165 1.0 0.0 0.00 0.00 0.01 85 1012.9
20260903165020 66 169 2.0 0.0 0.00 0.00 0.01 86 1012.9
20260903164520 66 173 2.0 0.0 0.00 0.00 0.01 86 1012.9
20260903164019 66 198 2.0 0.0 0.00 0.00 0.01 88 1012.8
20260903163517 65 121 1.0 0.0 0.00 0.00 0.01 91 1012.8
20260903163016 65 198 1.0 0.0 0.00 0.00 0.01 91 1012.8
20260903162515 64 181 1.0 0.0 0.00 0.00 0.01 92 1013.0
20260903162014 64 144 1.0 0.0 0.00 0.00 0.01 92 1013.0
20260903161513 63 198 1.0 0.0 0.00 0.00 0.01 93 1013.0
20260903161012 63 189 1.0 0.0 0.00 0.00 0.01 93 1013.0
20260903160512 63 190 1.0 0.0 0.00 0.00 0.01 93 1013.0
20260903160015 62 198 2.0 0.0 0.00 0.00 0.01 93 1013.0
20260903155513 62 204 3.0 0.0 0.00 0.00 0.01 93 1012.9
20260903155011 63 196 2.0 0.0 0.00 0.00 0.01 93 1012.9
20260903154511 63 227 2.0 0.0 0.00 0.00 0.01 94 1012.9
20260903154012 63 186 2.0 0.0 0.00 0.00 0.01 94 1012.8
20260903153510 63 178 1.0 0.0 0.00 0.00 0.01 95 1012.8
20260903153010 63 206 2.0 0.0 0.00 0.00 0.01 95 1012.8
20260903152511 63 123 1.0 0.0 0.00 0.00 0.01 95 1012.8
20260903152011 63 150 1.0 0.0 0.00 0.00 0.01 96 1012.8
20260903151509 63 194 1.0 0.0 0.00 0.00 0.01 96 1012.8
20260903151010 62 172 1.0 0.0 0.00 0.00 0.01 96 1012.9
20260903150511 62 137 1.0 0.0 0.00 0.00 0.01 96 1012.9
20260903150013 62 164 0.0 0.0 0.00 0.00 0.01 97 1012.9
20260903145510 62 190 0.0 0.0 0.00 0.00 0.01 97 1012.9
20260903145009 62 180 0.0 0.0 0.00 0.00 0.01 97 1012.9
20260903144509 61 224 0.0 0.0 0.00 0.00 0.01 96 1012.9
20260903144009 61 153 0.0 0.0 0.00 0.00 0.01 97 1012.7
20260903143508 61 153 0.0 0.0 0.00 0.00 0.01 97 1012.7
20260903143009 61 221 1.0 0.0 0.00 0.00 0.01 97 1012.7
20260903142508 61 180 1.0 0.0 0.00 0.00 0.01 97 1012.5
20260903142008 60 160 0.0 0.0 0.00 0.00 0.01 97 1012.5
20260903141510 60 184 0.0 0.0 0.00 0.00 0.01 96 1012.5
20260903141008 60 169 0.0 0.0 0.00 0.00 0.01 96 1012.4
20260903140508 60 169 0.0 0.0 0.00 0.00 0.01 96 1012.4
20260903140016 60 169 0.0 0.0 0.00 0.00 0.01 96 1012.4
20260903135507 60 169 0.0 0.0 0.00 0.00 0.01 96 1012.4
20260903135011 60 169 0.0 0.0 0.00 0.00 0.01 96 1012.4
20260903134506 60 169 0.0 0.0 0.00 0.00 0.01 96 1012.4
20260903134009 60 169 0.0 0.0 0.00 0.00 0.01 96 1012.3
20260903133506 60 169 0.0 0.0 0.00 0.00 0.01 96 1012.3
20260903133006 60 169 0.0 0.0 0.00 0.00 0.01 96 1012.3
20260903132505 60 169 0.0 0.0 0.00 0.00 0.01 96 1012.4
20260903132005 60 169 0.0 0.0 0.00 0.00 0.01 96 1012.4
20260903131505 60 169 0.0 0.0 0.00 0.00 0.01 96 1012.4
20260903131005 60 169 0.0 0.0 0.00 0.00 0.01 96 1012.2
20260903130504 60 169 0.0 0.0 0.00 0.00 0.01 96 1012.2
20260903130005 60 169 0.0 0.0 0.00 0.00 0.01 96 1012.2
20260903125504 60 202 0.0 0.0 0.00 0.00 0.01 96 1012.2
20260903125006 60 202 1.0 0.0 0.00 0.00 0.01 96 1012.2
20260903124505 60 194 0.0 0.0 0.00 0.00 0.01 96 1012.2
20260903124003 60 190 1.0 0.0 0.00 0.00 0.01 96 1012.1
20260903123505 60 202 1.0 0.0 0.00 0.00 0.01 96 1012.1
20260903123003 60 175 1.0 0.0 0.00 0.00 0.01 96 1012.1
20260903122503 60 190 1.0 0.0 0.00 0.00 0.01 96 1012.1
20260903122002 60 190 1.0 0.0 0.00 0.00 0.01 96 1012.1
20260903121502 60 153 0.0 0.0 0.00 0.00 0.01 96 1012.1
20260903121001 60 196 0.0 0.0 0.00 0.00 0.01 96 1012.1
20260903120503 60 196 0.0 0.0 0.00 0.00 0.01 96 1012.1
20260903120002 61 196 1.0 0.0 0.00 0.00 0.01 96 1012.1
20260903115600 61 196 1.0 0.0 0.00 0.00 0.01 96 1012.1
20260903115100 61 205 1.0 0.0 0.00 0.00 0.01 96 1012.1
20260903114600 61 152 1.0 0.0 0.00 0.00 0.01 96 1012.1
20260903114058 61 197 1.0 0.0 0.00 0.00 0.01 96 1012.3
20260903113600 61 154 1.0 0.0 0.00 0.00 0.01 96 1012.3
20260903113100 61 188 1.0 0.0 0.00 0.00 0.01 96 1012.3
20260903112603 61 184 1.0 0.0 0.00 0.00 0.01 96 1012.3
20260903112058 61 163 1.0 0.0 0.00 0.00 0.01 96 1012.3
20260903111606 61 188 1.0 0.0 0.00 0.00 0.01 96 1012.3
20260903111058 61 183 1.0 0.0 0.00 0.00 0.01 96 1012.2
20260903110601 61 162 1.0 0.0 0.00 0.00 0.01 96 1012.2
20260903110058 61 172 1.0 0.0 0.00 0.00 0.01 95 1012.2
20260903105600 61 194 1.0 0.0 0.00 0.00 0.01 95 1012.2
20260903105057 61 161 1.0 0.0 0.00 0.00 0.01 95 1012.2
20260903104557 61 163 1.0 0.0 0.00 0.00 0.01 95 1012.2
20260903104055 61 174 2.0 0.0 0.00 0.00 0.01 95 1012.3
20260903103555 61 199 2.0 0.0 0.00 0.00 0.01 95 1012.3
20260903103057 62 206 2.0 0.0 0.00 0.00 0.01 95 1012.3
20260903102555 62 196 2.0 0.0 0.00 0.00 0.01 95 1012.4
20260903102056 62 179 2.0 0.0 0.00 0.00 0.01 95 1012.4
20260903101559 62 201 2.0 0.0 0.00 0.00 0.01 95 1012.4
20260903101053 62 175 2.0 0.0 0.00 0.00 0.01 95 1012.2
20260903100553 62 196 2.0 0.0 0.00 0.00 0.01 95 1012.2
20260903100055 62 204 2.0 0.0 0.00 0.00 0.01 95 1012.2
20260903095552 62 175 2.0 0.0 0.00 0.00 0.00 95 1012.2
20260903095052 62 211 2.0 0.0 0.00 0.00 0.00 95 1012.2
20260903094601 62 213 2.0 0.0 0.00 0.00 0.00 95 1012.2
20260903094052 62 204 2.0 0.0 0.00 0.00 0.00 95 1012.3
20260903093551 62 167 3.0 0.0 0.00 0.00 0.00 95 1012.3
20260903093103 62 178 3.0 0.0 0.00 0.00 0.00 95 1012.3
20260903092551 62 158 2.0 0.0 0.00 0.00 0.00 95 1012.4
20260903092051 62 200 2.0 0.0 0.00 0.00 0.00 95 1012.4
20260903091550 62 182 2.0 0.0 0.00 0.00 0.00 95 1012.4
20260903091050 62 198 2.0 0.0 0.00 0.00 0.00 95 1012.7
20260903090550 62 161 2.0 0.0 0.00 0.00 0.00 95 1012.7
20260903090050 62 196 2.0 0.0 0.00 0.00 0.00 95 1012.7
20260903085548 62 196 2.0 0.0 0.00 0.00 0.00 95 1012.9
20260903085049 62 190 2.0 0.0 0.00 0.00 0.00 94 1012.9
20260903084549 62 187 2.0 0.0 0.00 0.00 0.00 94 1012.9
20260903084048 62 192 2.0 0.0 0.00 0.00 0.00 94 1012.9
20260903083548 62 158 2.0 0.0 0.00 0.00 0.00 94 1012.9
20260903083053 62 197 3.0 0.0 0.00 0.00 0.00 94 1012.9
20260903082548 62 184 2.0 0.0 0.00 0.00 0.00 94 1012.9
20260903082148 62 237 2.0 0.0 0.00 0.00 0.00 94 1012.9
20260903081549 62 167 2.0 0.0 0.00 0.00 0.00 94 1012.9
20260903081048 62 143 2.0 0.0 0.00 0.00 0.00 94 1013.0
20260903080548 62 180 2.0 0.0 0.00 0.00 0.00 94 1013.0
20260903080050 62 127 2.0 0.0 0.00 0.00 0.00 94 1013.0
20260903075546 62 163 3.0 0.0 0.00 0.00 0.00 94 1012.9
20260903075045 62 205 3.0 0.0 0.00 0.00 0.00 94 1012.9
20260903074546 63 245 4.0 0.0 0.00 0.00 0.00 93 1012.9
20260903074044 63 257 4.0 0.0 0.00 0.00 0.00 93 1013.0
20260903073544 63 257 5.0 0.0 0.00 0.00 0.00 93 1013.0
20260903073044 63 294 5.0 0.0 0.00 0.00 0.00 93 1013.0
20260903072542 63 306 5.0 0.0 0.00 0.00 0.00 93 1012.9
20260903072042 63 299 5.0 0.0 0.00 0.00 0.00 93 1012.9
20260903071542 63 297 4.0 0.0 0.00 0.00 0.00 93 1012.9
20260903071040 63 256 5.0 0.0 0.00 0.00 0.00 92 1012.9
20260903070544 63 279 5.0 0.0 0.00 0.00 0.00 92 1012.9
20260903070040 63 290 4.0 0.0 0.00 0.00 0.00 92 1012.9
20260903065540 63 245 4.0 0.0 0.00 0.00 0.00 92 1013.0
20260903065039 62 229 4.0 0.0 0.00 0.00 0.00 91 1013.0
20260903064541 62 288 3.0 0.0 0.00 0.00 0.00 91 1013.0
20260903064039 62 302 3.0 0.0 0.00 0.00 0.00 92 1012.8
20260903063539 62 287 3.0 0.0 0.00 0.00 0.00 92 1012.8
20260903063039 62 160 3.0 0.0 0.00 0.00 0.00 93 1012.8
20260903062539 62 196 3.0 0.0 0.00 0.00 0.00 93 1012.9
20260903062039 62 218 3.0 0.0 0.00 0.00 0.00 93 1012.9
20260903061550 62 188 3.0 0.0 0.00 0.00 0.00 93 1012.9
20260903061038 62 180 3.0 0.0 0.00 0.00 0.00 93 1012.8
20260903060538 63 157 3.0 0.0 0.00 0.00 0.00 93 1012.8
20260903060041 63 186 3.0 0.0 0.00 0.00 0.00 93 1012.8
20260903055538 63 214 3.0 0.0 0.00 0.00 0.00 93 1012.8
20260903055037 63 177 3.0 0.0 0.00 0.00 0.00 93 1012.8
20260903054541 63 271 3.0 0.0 0.00 0.00 0.00 93 1012.8
20260903054037 63 185 4.0 0.0 0.00 0.00 0.00 93 1012.7
20260903053537 63 185 5.0 0.0 0.00 0.00 0.00 93 1012.7
20260903053038 63 275 4.0 0.0 0.00 0.00 0.00 93 1012.7
20260903052537 63 284 4.0 0.0 0.00 0.00 0.00 93 1012.8
20260903052037 63 272 5.0 0.0 0.00 0.00 0.00 93 1012.8
20260903051537 63 309 6.0 0.0 0.00 0.00 0.00 93 1012.8
20260903051036 63 308 6.0 0.0 0.00 0.00 0.00 93 1013.1
20260903050536 63 265 4.0 0.0 0.00 0.00 0.00 93 1013.1
20260903050036 63 240 5.0 0.0 0.00 0.00 0.00 92 1013.1
20260903045537 63 238 5.0 0.0 0.00 0.00 0.00 92 1013.1
20260903045041 63 271 4.0 0.0 0.00 0.00 0.00 92 1013.1
20260903044540 63 252 2.0 0.0 0.00 0.00 0.00 92 1013.1
20260903044042 63 265 1.0 0.0 0.00 0.00 0.00 91 1013.1
20260903043537 63 149 1.0 0.0 0.00 0.00 0.00 91 1013.1
20260903043042 63 79 1.0 0.0 0.00 0.00 0.00 91 1013.1
20260903042535 63 139 1.0 0.0 0.00 0.00 0.00 91 1012.9
20260903042037 63 171 2.0 0.0 0.00 0.00 0.00 91 1012.9
20260903041535 63 128 2.0 0.0 0.00 0.00 0.00 91 1012.9
20260903041035 63 157 2.0 0.0 0.00 0.00 0.00 90 1013.0
20260903040535 63 208 3.0 0.0 0.00 0.00 0.00 90 1013.0
20260903040035 63 182 3.0 0.0 0.00 0.00 0.00 90 1013.0
20260903035534 63 192 2.0 0.0 0.00 0.00 0.00 89 1012.9
20260903035034 63 146 2.0 0.0 0.00 0.00 0.00 88 1012.9
20260903034542 63 207 2.0 0.0 0.00 0.00 0.00 88 1012.9
20260903034034 62 155 2.0 0.0 0.00 0.00 0.00 88 1012.8
20260903033536 62 195 2.0 0.0 0.00 0.00 0.00 87 1012.8
20260903033033 62 147 2.0 0.0 0.00 0.00 0.00 88 1012.8
20260903032535 62 192 1.0 0.0 0.00 0.00 0.00 87 1012.8
20260903032034 63 150 1.0 0.0 0.00 0.00 0.00 87 1012.8
20260903031533 63 169 2.0 0.0 0.00 0.00 0.00 87 1012.8
20260903031034 63 195 2.0 0.0 0.00 0.00 0.00 87 1012.8
20260903030534 63 169 2.0 0.0 0.00 0.00 0.00 87 1012.8
20260903030033 63 173 2.0 0.0 0.00 0.00 0.00 87 1012.8
20260903025537 63 169 2.0 0.0 0.00 0.00 0.00 87 1012.7
20260903025033 63 207 2.0 0.0 0.00 0.00 0.00 86 1012.7
20260903024533 63 173 2.0 0.0 0.00 0.00 0.00 86 1012.7
20260903024033 63 151 1.0 0.0 0.00 0.00 0.00 85 1012.6
20260903023533 64 164 2.0 0.0 0.00 0.00 0.00 85 1012.6
20260903023031 64 182 2.0 0.0 0.00 0.00 0.00 84 1012.6
20260903022533 64 190 3.0 0.0 0.00 0.00 0.00 84 1012.6
20260903022031 64 160 4.0 0.0 0.00 0.00 0.00 84 1012.6
20260903021532 64 271 4.0 0.0 0.00 0.00 0.00 84 1012.6
20260903021031 64 269 4.0 0.0 0.00 0.00 0.00 84 1012.7
20260903020535 64 252 5.0 0.0 0.00 0.00 0.00 83 1012.7
20260903020047 64 294 4.0 0.0 0.00 0.00 0.00 81 1012.7
20260903015534 64 288 3.0 0.0 0.00 0.00 0.00 80 1012.6
20260903015030 65 295 3.0 0.0 0.00 0.00 0.00 80 1012.6
20260903014532 65 269 3.0 0.0 0.00 0.00 0.00 79 1012.6
20260903014030 65 292 2.0 0.0 0.00 0.00 0.00 79 1012.7
20260903013531 66 202 2.0 0.0 0.00 0.00 0.00 79 1012.7
20260903013030 66 194 2.0 0.0 0.00 0.00 0.00 78 1012.7
20260903012529 66 165 3.0 0.0 0.00 0.00 0.00 77 1012.6
20260903012032 67 199 3.0 0.0 0.00 0.00 0.00 76 1012.6
20260903011530 67 212 3.0 0.0 0.00 0.00 0.00 76 1012.6
20260903011029 68 223 2.0 0.0 0.00 0.00 0.00 76 1012.4
20260903010529 68 182 3.0 0.0 0.00 0.00 0.00 76 1012.4
20260903010029 68 234 3.0 0.0 0.00 0.00 0.00 74 1012.4
20260903005531 69 304 2.0 0.0 0.00 0.00 0.00 74 1012.5
20260903005032 69 213 2.0 0.0 0.00 0.00 0.00 75 1012.5
20260903004528 69 212 3.0 0.0 0.00 0.00 0.00 75 1012.5
20260903004028 69 208 3.0 0.0 0.00 0.00 0.00 76 1012.6
20260903003528 69 195 2.0 0.0 0.00 0.00 0.00 76 1012.6
20260903003028 69 223 2.0 0.0 0.00 0.00 0.00 77 1012.6
20260903002527 69 240 3.0 0.0 0.00 0.00 0.00 77 1012.5
20260903002027 69 186 3.0 0.0 0.00 0.00 0.00 78 1012.5
20260903001526 69 226 3.0 0.0 0.00 0.00 0.00 77 1012.5
20260903001028 69 232 3.0 0.0 0.00 0.00 0.00 78 1012.6
20260903000526 69 65 3.0 0.0 0.00 0.00 0.00 79 1012.6
20260903000026 69 254 3.0 0.0 0.00 0.00 0.00 79 1012.6
20260902235526 69 318 4.0 0.0 0.00 0.00 0.00 77 1012.7
20260902235025 69 192 4.0 0.0 0.00 0.00 0.00 78 1012.7
20260902234525 70 267 4.0 0.0 0.00 0.00 0.00 77 1012.7
20260902234025 70 232 3.0 0.0 0.00 0.00 0.00 76 1012.7
20260902233525 71 204 3.0 0.0 0.00 0.00 0.00 75 1012.7
20260902233025 71 199 3.0 0.0 0.00 0.00 0.00 75 1012.7
20260902232524 71 223 4.0 0.0 0.00 0.00 0.00 75 1012.7
20260902232026 71 213 3.0 0.0 0.00 0.00 0.00 75 1012.7
20260902231524 71 154 3.0 0.0 0.00 0.00 0.00 74 1012.7
20260902231024 71 273 3.0 0.0 0.00 0.00 0.00 75 1013.0
20260902230523 71 155 4.0 0.0 0.00 0.00 0.00 75 1013.0
20260902230023 70 212 3.0 0.0 0.00 0.00 0.00 75 1013.0
20260902225525 70 325 4.0 0.0 0.00 0.00 0.00 73 1013.0
20260902225028 71 314 4.0 0.0 0.00 0.00 0.00 70 1013.0
20260902224524 72 221 3.0 0.0 0.00 0.00 0.00 69 1013.0
20260902224022 72 198 3.0 0.0 0.00 0.00 0.00 67 1013.1
20260902223522 72 204 3.0 0.0 0.00 0.00 0.00 66 1013.1